Starlink 5893

operational
NORAD ID: 55952 Int'l Des: 2023-037 Owner: SPXS Country: US Constellation: starlink
LEOCIRCULAR

Über Starlink 5893

Beschreibung wird geladen...

Live-Position

3D-Globus wird geladen...

Nächste Überflüge

Höhenverlauf

Altitude vs Time

uPlot chart will show altitude changes over time

Zweizeiliger Elementsatz

1 55952U 23037AQ 26063.03758353 -.00077612 00000-0 -66660-2 0 9993
2 55952 69.9970 278.8233 0004248 229.0354 131.0437 14.97758502163629
Epoch: 4. März 2026 • Age: 12 hours

Aktueller Status

Höhe 582.3 km
Geschwindigkeit 7.57 km/s
Subsatellitenpunkt -20.43°S, 72.74°W
Startdatum 17. März 2023
Alter 2.9 years
Typ internet

Technische Details

Klassifizierung Payload
Masse 305.00 kg
Trockenmasse 290.00 kg
Gesamtmasse 305.00 kg
Länge 0.20 m
Durchmesser 2.80 m
Spannweite 9.00 m
Form Box + pan
Hersteller SPXS
Bus-Typ Starlink
Phasenstatus In Orbit
Besitzer/Staat SPXS/US

Große Konstellationen

Loading constellations...